| time (UTC) | temp C | wind direction | speed KPH | gust KPH | rain 1hr cm | rain 24hr cm | rain mn cm | humidity % | barometer mb |
| 20260505074304 | 19 | 356 | 4.8 | 11.3 | 0.00 | 0.46 | 0.00 | 59 | 1010.4 |
| 20260505073804 | 19 | 253 | 4.8 | 12.9 | 0.00 | 0.46 | 0.00 | 61 | 1010.4 |
| 20260505072804 | 18 | 253 | 3.2 | 8.0 | 0.00 | 0.46 | 0.00 | 64 | 1010.4 |
| 20260505072305 | 18 | 244 | 4.8 | 11.3 | 0.00 | 0.46 | 0.00 | 63 | 1010.4 |
| 20260505071805 | 18 | 345 | 6.4 | 11.3 | 0.00 | 0.46 | 0.00 | 64 | 1010.4 |
| 20260505070804 | 18 | 281 | 3.2 | 14.5 | 0.00 | 0.46 | 0.00 | 68 | 1010.4 |
| 20260505070304 | 18 | 273 | 6.4 | 12.9 | 0.00 | 0.46 | 0.00 | 68 | 1010.4 |
| 20260505065804 | 18 | 292 | 3.2 | 9.7 | 0.00 | 0.46 | 0.00 | 70 | 1010.5 |
| 20260505065304 | 17 | 322 | 8.0 | 14.5 | 0.00 | 0.46 | 0.00 | 72 | 1010.4 |
| 20260505064805 | 17 | 244 | 3.2 | 8.0 | 0.00 | 0.46 | 0.00 | 74 | 1010.4 |
| 20260505063804 | 17 | 263 | 4.8 | 11.3 | 0.00 | 0.46 | 0.00 | 81 | 1010.4 |
| 20260505063305 | 17 | 247 | 3.2 | 9.7 | 0.00 | 0.46 | 0.00 | 83 | 1010.3 |
| 20260505062804 | 16 | 255 | 3.2 | 8.0 | 0.00 | 0.46 | 0.00 | 84 | 1010.3 |
| 20260505062304 | 16 | 256 | 3.2 | 9.7 | 0.00 | 0.46 | 0.00 | 85 | 1010.3 |
| 20260505061304 | 16 | 256 | 3.2 | 8.0 | 0.00 | 0.46 | 0.00 | 87 | 1010.2 |
| 20260505060804 | 16 | 254 | 3.2 | 4.8 | 0.00 | 0.46 | 0.00 | 87 | 1010.2 |
| 20260505060304 | 16 | 259 | 4.8 | 8.0 | 0.00 | 0.46 | 0.00 | 88 | 1010.2 |
| 20260505055804 | 16 | 254 | 3.2 | 9.7 | 0.00 | 0.46 | 0.00 | 88 | 1010.2 |
| 20260505055304 | 16 | 256 | 4.8 | 9.7 | 0.00 | 0.46 | 0.00 | 89 | 1010.2 |
| 20260505054804 | 16 | 252 | 3.2 | 8.0 | 0.00 | 0.46 | 0.00 | 89 | 1010.1 |
| 20260505053804 | 16 | 248 | 1.6 | 4.8 | 0.00 | 0.46 | 0.00 | 90 | 1010.2 |
| 20260505053304 | 16 | 248 | 3.2 | 4.8 | 0.00 | 0.46 | 0.00 | 90 | 1010.2 |
| 20260505052804 | 16 | 248 | 0.0 | 3.2 | 0.00 | 0.46 | 0.00 | 90 | 1010.2 |
| 20260505051804 | 15 | 246 | 3.2 | 8.0 | 0.00 | 0.46 | 0.00 | 90 | 1010.1 |
| 20260505051304 | 15 | 258 | 1.6 | 4.8 | 0.00 | 0.46 | 0.00 | 90 | 1010.0 |
| 20260505050804 | 16 | 267 | 1.6 | 4.8 | 0.00 | 0.46 | 0.00 | 90 | 1010.0 |
| 20260505050305 | 16 | 261 | 3.2 | 4.8 | 0.00 | 0.46 | 0.00 | 90 | 1009.9 |
| 20260505041304 | 16 | 356 | 1.6 | 4.8 | 0.00 | 0.46 | 0.00 | 90 | 1010.1 |
| 20260505040304 | 16 | 313 | 1.6 | 4.8 | 0.00 | 0.46 | 0.00 | 90 | 1010.1 |
| 20260505035804 | 16 | 356 | 3.2 | 4.8 | 0.00 | 0.46 | 0.00 | 90 | 1010.1 |
| 20260505035304 | 16 | 294 | 1.6 | 4.8 | 0.00 | 0.46 | 0.00 | 89 | 1010.1 |
| 20260505034804 | 16 | 297 | 0.0 | 3.2 | 0.00 | 0.46 | 0.00 | 89 | 1010.1 |
| 20260505034304 | 17 | 296 | 1.6 | 3.2 | 0.00 | 0.46 | 0.00 | 89 | 1010.1 |
| 20260505033804 | 17 | 297 | 0.0 | 1.6 | 0.00 | 0.46 | 0.00 | 89 | 1010.2 |
| 20260505033303 | 17 | 297 | 0.0 | 3.2 | 0.00 | 0.46 | 0.00 | 89 | 1010.2 |
| 20260505032305 | 17 | 299 | 0.0 | 4.8 | 0.00 | 0.46 | 0.00 | 89 | 1010.2 |
| 20260505031804 | 17 | 297 | 1.6 | 4.8 | 0.00 | 0.46 | 0.00 | 89 | 1010.2 |
| 20260505031304 | 17 | 304 | 3.2 | 4.8 | 0.00 | 0.46 | 0.00 | 89 | 1010.2 |
| 20260505030804 | 17 | 310 | 1.6 | 3.2 | 0.00 | 0.46 | 0.00 | 89 | 1010.3 |
| 20260505030304 | 17 | 326 | 0.0 | 3.2 | 0.00 | 0.46 | 0.00 | 89 | 1010.3 |
| 20260505025305 | 17 | 297 | 0.0 | 3.2 | 0.00 | 0.46 | 0.00 | 89 | 1010.4 |
| 20260505023804 | 17 | 299 | 1.6 | 3.2 | 0.00 | 0.46 | 0.00 | 89 | 1010.4 |
| 20260505023303 | 17 | 296 | 0.0 | 3.2 | 0.00 | 0.46 | 0.00 | 89 | 1010.5 |
| 20260505021804 | 17 | 296 | 0.0 | 3.2 | 0.00 | 0.46 | 0.00 | 89 | 1010.5 |
| 20260505021304 | 17 | 314 | 1.6 | 4.8 | 0.00 | 0.46 | 0.00 | 89 | 1010.4 |
| 20260505020804 | 17 | 306 | 1.6 | 3.2 | 0.00 | 0.46 | 0.00 | 89 | 1010.4 |
| 20260505020304 | 17 | 313 | 0.0 | 3.2 | 0.00 | 0.46 | 0.00 | 89 | 1010.4 |
| 20260505015805 | 17 | 309 | 0.0 | 0.0 | 0.00 | 0.46 | 0.00 | 89 | 1010.4 |
| 20260505015304 | 17 | 309 | 0.0 | 1.6 | 0.00 | 0.46 | 0.00 | 89 | 1010.4 |
| 20260505014804 | 17 | 309 | 0.0 | 0.0 | 0.00 | 0.46 | 0.00 | 89 | 1010.3 |
| 20260505014304 | 17 | 309 | 0.0 | 1.6 | 0.00 | 0.46 | 0.00 | 89 | 1010.3 |
| 20260505013804 | 17 | 309 | 0.0 | 3.2 | 0.00 | 0.46 | 0.00 | 89 | 1010.3 |
| 20260505013304 | 17 | 309 | 0.0 | 4.8 | 0.00 | 0.46 | 0.00 | 88 | 1010.3 |
| 20260505012804 | 17 | 312 | 1.6 | 4.8 | 0.00 | 0.46 | 0.00 | 88 | 1010.3 |
| 20260505012304 | 17 | 308 | 0.0 | 3.2 | 0.00 | 0.46 | 0.00 | 88 | 1010.3 |
| 20260505011804 | 17 | 308 | 0.0 | 3.2 | 0.00 | 0.46 | 0.00 | 88 | 1010.4 |
| 20260505011304 | 17 | 307 | 0.0 | 1.6 | 0.00 | 0.46 | 0.00 | 88 | 1010.4 |
| 20260505010804 | 17 | 308 | 1.6 | 4.8 | 0.00 | 0.46 | 0.00 | 88 | 1010.4 |
| 20260505010304 | 17 | 320 | 1.6 | 4.8 | 0.00 | 0.46 | 0.00 | 88 | 1010.5 |
| 20260505005305 | 17 | 311 | 1.6 | 4.8 | 0.00 | 0.46 | 0.00 | 88 | 1010.6 |
| 20260505004804 | 17 | 313 | 1.6 | 4.8 | 0.00 | 0.46 | 0.00 | 87 | 1010.7 |
| 20260505003804 | 17 | 313 | 1.6 | 4.8 | 0.00 | 0.46 | 0.00 | 87 | 1010.8 |
| 20260505002804 | 17 | 316 | 0.0 | 3.2 | 0.00 | 0.46 | 0.00 | 87 | 1010.8 |
| 20260505002304 | 17 | 315 | 0.0 | 0.0 | 0.00 | 0.46 | 0.00 | 86 | 1010.8 |
| 20260505001803 | 18 | 315 | 0.0 | 0.0 | 0.00 | 0.46 | 0.00 | 86 | 1010.8 |
| 20260505001303 | 18 | 315 | 0.0 | 1.6 | 0.00 | 0.46 | 0.00 | 86 | 1010.9 |
| 20260505000303 | 18 | 313 | 1.6 | 3.2 | 0.00 | 0.46 | 0.00 | 86 | 1011.0 |
| 20260504235805 | 18 | 314 | 1.6 | 3.2 | 0.00 | 0.46 | 0.00 | 86 | 1011.0 |
| 20260504234803 | 18 | 337 | 1.6 | 4.8 | 0.00 | 0.46 | 0.00 | 86 | 1011.0 |
| 20260504233804 | 18 | 332 | 1.6 | 4.8 | 0.00 | 0.46 | 0.00 | 86 | 1011.0 |
| 20260504233304 | 18 | 333 | 1.6 | 4.8 | 0.00 | 0.46 | 0.00 | 86 | 1011.0 |
| 20260504232804 | 18 | 332 | 1.6 | 8.0 | 0.00 | 0.46 | 0.00 | 86 | 1011.0 |
| 20260504232304 | 18 | 21 | 1.6 | 3.2 | 0.00 | 0.46 | 0.00 | 86 | 1011.0 |
| 20260504231805 | 18 | 22 | 3.2 | 4.8 | 0.00 | 0.46 | 0.00 | 86 | 1011.0 |
| 20260504230804 | 18 | 22 | 1.6 | 4.8 | 0.00 | 0.46 | 0.00 | 86 | 1011.0 |
| 20260504230304 | 18 | 22 | 1.6 | 4.8 | 0.00 | 0.46 | 0.00 | 86 | 1011.0 |
| 20260504225804 | 19 | 23 | 3.2 | 8.0 | 0.00 | 0.46 | 0.00 | 86 | 1011.0 |
| 20260504225304 | 18 | 27 | 3.2 | 4.8 | 0.00 | 0.46 | 0.00 | 86 | 1010.9 |
| 20260504224804 | 18 | 23 | 3.2 | 4.8 | 0.00 | 0.46 | 0.00 | 87 | 1011.0 |
| 20260504224304 | 18 | 27 | 3.2 | 4.8 | 0.00 | 0.46 | 0.00 | 87 | 1011.0 |
| 20260504223804 | 18 | 27 | 1.6 | 8.0 | 0.00 | 0.46 | 0.00 | 87 | 1010.9 |
| 20260504223304 | 18 | 22 | 3.2 | 4.8 | 0.00 | 0.46 | 0.00 | 87 | 1010.9 |
| 20260504222804 | 19 | 24 | 4.8 | 9.7 | 0.00 | 0.46 | 0.00 | 87 | 1011.0 |
| 20260504222305 | 19 | 348 | 4.8 | 9.7 | 0.00 | 0.46 | 0.00 | 87 | 1010.9 |
| 20260504221804 | 19 | 57 | 1.6 | 4.8 | 0.00 | 0.46 | 0.00 | 88 | 1010.8 |
| 20260504221304 | 19 | 58 | 4.8 | 4.8 | 0.00 | 0.46 | 0.00 | 88 | 1010.8 |
| 20260504220818 | 19 | 57 | 1.6 | 4.8 | 0.00 | 0.46 | 0.00 | 87 | 1010.8 |
| 20260504220304 | 19 | 57 | 0.0 | 4.8 | 0.00 | 0.46 | 0.00 | 88 | 1010.8 |
| 20260504215804 | 19 | 58 | 3.2 | 4.8 | 0.00 | 0.46 | 0.46 | 88 | 1010.8 |
| 20260504215305 | 19 | 57 | 3.2 | 4.8 | 0.00 | 0.46 | 0.46 | 88 | 1010.7 |
| 20260504214804 | 19 | 57 | 0.0 | 0.0 | 0.00 | 0.46 | 0.46 | 88 | 1010.7 |
| 20260504214304 | 19 | 57 | 0.0 | 3.2 | 0.00 | 0.46 | 0.46 | 87 | 1010.8 |
| 20260504213804 | 19 | 57 | 0.0 | 4.8 | 0.00 | 0.46 | 0.46 | 88 | 1010.8 |
| 20260504213304 | 19 | 57 | 0.0 | 4.8 | 0.00 | 0.46 | 0.46 | 87 | 1010.7 |
| 20260504212803 | 19 | 58 | 1.6 | 8.0 | 0.00 | 0.46 | 0.46 | 87 | 1010.7 |
| 20260504211803 | 19 | 56 | 1.6 | 4.8 | 0.00 | 0.46 | 0.46 | 87 | 1010.6 |
| 20260504211304 | 19 | 56 | 3.2 | 4.8 | 0.00 | 0.46 | 0.46 | 87 | 1010.6 |
| 20260504210303 | 19 | 60 | 3.2 | 4.8 | 0.00 | 0.46 | 0.46 | 86 | 1010.6 |
| 20260504205304 | 20 | 59 | 3.2 | 8.0 | 0.00 | 0.46 | 0.46 | 86 | 1010.4 |
| 20260504204803 | 20 | 61 | 1.6 | 4.8 | 0.00 | 0.46 | 0.46 | 86 | 1010.4 |
| 20260504204304 | 20 | 50 | 1.6 | 4.8 | 0.00 | 0.46 | 0.46 | 86 | 1010.3 |
| 20260504203803 | 20 | 40 | 3.2 | 8.0 | 0.00 | 0.46 | 0.46 | 86 | 1010.2 |
| 20260504203304 | 20 | 36 | 3.2 | 4.8 | 0.00 | 0.46 | 0.46 | 86 | 1010.1 |
| 20260504202804 | 20 | 38 | 3.2 | 4.8 | 0.00 | 0.46 | 0.46 | 86 | 1010.0 |
| 20260504202304 | 20 | 40 | 3.2 | 9.7 | 0.00 | 0.46 | 0.46 | 85 | 1010.0 |
| 20260504201804 | 20 | 54 | 1.6 | 8.0 | 0.00 | 0.46 | 0.46 | 85 | 1009.9 |
| 20260504201304 | 20 | 49 | 4.8 | 4.8 | 0.00 | 0.46 | 0.46 | 85 | 1009.9 |
| 20260504200804 | 20 | 53 | 1.6 | 4.8 | 0.00 | 0.46 | 0.46 | 85 | 1009.7 |
| 20260504200304 | 20 | 44 | 1.6 | 8.0 | 0.00 | 0.46 | 0.46 | 85 | 1009.7 |
| 20260504195804 | 20 | 53 | 3.2 | 4.8 | 0.00 | 0.46 | 0.46 | 85 | 1009.6 |
| 20260504195304 | 20 | 53 | 3.2 | 9.7 | 0.00 | 0.46 | 0.46 | 85 | 1009.5 |
| 20260504194303 | 20 | 57 | 6.4 | 14.5 | 0.00 | 0.46 | 0.46 | 84 | 1009.2 |
| 20260504193804 | 20 | 34 | 8.0 | 14.5 | 0.00 | 0.46 | 0.46 | 84 | 1009.2 |
| 20260504193304 | 20 | 39 | 9.7 | 19.3 | 0.00 | 0.46 | 0.46 | 84 | 1009.1 |
| 20260504192304 | 20 | 30 | 8.0 | 16.1 | 0.00 | 0.46 | 0.46 | 83 | 1009.0 |
| 20260504191303 | 20 | 37 | 9.7 | 22.5 | 0.00 | 0.46 | 0.46 | 82 | 1008.8 |
| 20260504190804 | 20 | 17 | 9.7 | 16.1 | 0.00 | 0.46 | 0.46 | 81 | 1008.8 |
| 20260504190303 | 21 | 3 | 11.3 | 19.3 | 0.00 | 0.46 | 0.46 | 80 | 1008.7 |
| 20260504185805 | 21 | 9 | 12.9 | 27.4 | 0.00 | 0.46 | 0.46 | 78 | 1008.6 |
| 20260504185304 | 22 | 1 | 11.3 | 20.9 | 0.00 | 0.46 | 0.46 | 77 | 1008.5 |
| 20260504184804 | 22 | 10 | 8.0 | 16.1 | 0.00 | 0.46 | 0.46 | 76 | 1008.3 |
| 20260504184303 | 22 | 2 | 9.7 | 14.5 | 0.00 | 0.46 | 0.46 | 75 | 1008.2 |
| 20260504183804 | 22 | 147 | 3.2 | 8.0 | 0.00 | 0.46 | 0.46 | 74 | 1008.0 |
| 20260504183304 | 22 | 148 | 0.0 | 0.0 | 0.00 | 0.46 | 0.46 | 74 | 1007.9 |
| 20260504182304 | 22 | 148 | 3.2 | 9.7 | 0.00 | 0.46 | 0.46 | 75 | 1007.7 |
| 20260504181803 | 22 | 148 | 4.8 | 9.7 | 0.00 | 0.46 | 0.46 | 75 | 1007.6 |
| 20260504181304 | 22 | 148 | 4.8 | 9.7 | 0.00 | 0.46 | 0.46 | 76 | 1007.6 |
| 20260504180804 | 22 | 146 | 8.0 | 9.7 | 0.00 | 0.46 | 0.46 | 76 | 1007.5 |
| 20260504180304 | 22 | 146 | 6.4 | 9.7 | 0.00 | 0.46 | 0.46 | 76 | 1007.4 |
| 20260504175804 | 22 | 134 | 9.7 | 16.1 | 0.00 | 0.46 | 0.46 | 76 | 1007.4 |
| 20260504175304 | 22 | 141 | 9.7 | 12.9 | 0.00 | 0.46 | 0.46 | 75 | 1007.4 |
| 20260504174803 | 23 | 157 | 9.7 | 16.1 | 0.00 | 0.46 | 0.46 | 75 | 1007.5 |
| 20260504174305 | 23 | 140 | 9.7 | 12.9 | 0.00 | 0.46 | 0.46 | 74 | 1007.5 |
| 20260504173804 | 23 | 139 | 8.0 | 11.3 | 0.00 | 0.46 | 0.46 | 75 | 1007.5 |
| 20260504172305 | 23 | 140 | 11.3 | 19.3 | 0.00 | 0.46 | 0.46 | 75 | 1007.4 |
| 20260504170805 | 23 | 63 | 9.7 | 19.3 | 0.00 | 0.46 | 0.46 | 73 | 1007.5 |
| 20260504170304 | 23 | 118 | 9.7 | 19.3 | 0.00 | 0.46 | 0.46 | 73 | 1007.5 |
| 20260504150305 | 23 | 94 | 14.5 | 22.5 | 0.00 | 0.46 | 0.46 | 72 | 1008.1 |
| 20260504141305 | 23 | 130 | 9.7 | 22.5 | 0.00 | 0.46 | 0.46 | 71 | 1008.6 |
| 20260504140804 | 23 | 56 | 11.3 | 20.9 | 0.00 | 0.46 | 0.46 | 71 | 1008.7 |
| 20260504140304 | 23 | 85 | 9.7 | 19.3 | 0.00 | 0.46 | 0.46 | 72 | 1008.8 |
| 20260504130305 | 22 | 156 | 9.7 | 16.1 | 0.00 | 0.46 | 0.46 | 78 | 1009.7 |
| 20260504120305 | 20 | 103 | 6.4 | 11.3 | 0.03 | 0.46 | 0.46 | 86 | 1010.4 |
| 20260504110304 | 19 | 166 | 0.0 | 1.6 | 0.03 | 0.43 | 0.43 | 88 | 1011.1 |
| 20260504081804 | 20 | 156 | 1.6 | 3.2 | 0.00 | 0.08 | 0.00 | 78 | 1011.1 |
| 20260504081304 | 20 | 157 | 0.0 | 3.2 | 0.00 | 0.08 | 0.00 | 77 | 1011.2 |
| 20260504080805 | 20 | 156 | 0.0 | 1.6 | 0.00 | 0.08 | 0.00 | 78 | 1011.1 |
| 20260504080304 | 20 | 157 | 0.0 | 3.2 | 0.00 | 0.08 | 0.00 | 78 | 1011.2 |